User: anonymous   Login
Location: Salamanca
(40.9670°N, 5.6500°W)
Time: 12:06:27
(UTC+01:00)
Language:

Cosmos 1633 Rocket - Orbit

View from above orbital plane
View from above orbital plane
View from above satellite
View from above satellite

Ground track
Ground track

The orbit data is extracted from the following two-line orbital elements,

1 15593U 85020B   14329.32933677  .00000556  00000-0  64184-4 0  8258
2 15593 082.5397 057.2773 0010693 241.8783 179.7948 14.83841496605714
Epoch (UTC): 25 November 2014 07:54:14
Eccentricity: 0.0010693
inclination: 82.5397°
perigee height: 610 km
apogee height: 625 km
right ascension of ascending node: 57.2773°
argument of perigee: 241.8783°
revolutions per day: 14.83841496
mean anomaly at epoch: 179.7948°
orbit number at epoch: 60571

The dashed part of the orbit path shows where the satellite is in the earth's shadow,  

DLR